User: anonymous   Login
Location: Kailua
(21.4020°N, 157.7390°W)
Time: 17:30:12
(UTC-10:00)
Language:

Cosmos 2297 Rocket - Orbit

View from above orbital plane
View from above orbital plane
View from above satellite
View from above satellite

Ground track
Ground track

The orbit data is extracted from the following two-line orbital elements,

1 23405U 94077B   17086.92176399 +.00000071 +00000-0 +61162-4 0  9997
2 23405 070.9856 026.2559 0000369 054.2228 305.8929 14.15197039153769
Epoch (UTC): 27 March 2017 22:07:20
Eccentricity: 0.0000369
inclination: 70.9856°
perigee height: 841 km
apogee height: 842 km
right ascension of ascending node: 26.2559°
argument of perigee: 54.2228°
revolutions per day: 14.15197039
mean anomaly at epoch: 305.8929°
orbit number at epoch: 15376

The dashed part of the orbit path shows where the satellite is in the earth's shadow,  

DLR